Date,TemperatureHighF,TemperatureAvgF,TemperatureLowF,DewpointHighF,DewpointAvgF,DewpointLowF,HumidityHigh,HumidityAvg,HumidityLow,PressureMaxIn,PressureMinIn,WindSpeedMaxMPH,WindSpeedAvgMPH,GustSpeedMaxMPH,PrecipitationSumIn
2013-3-1,31,23,10,16,13,5,81,65,47,30.33,30.20,18,4,20,0.00
2013-3-2,31,14,-5,13,5,-11,86,67,45,30.35,30.14,10,1,11,0.00
2013-3-3,32,19,3,8,2,-4,81,51,28,30.14,29.98,16,5,17,0.00
2013-3-4,27,24,20,21,12,-3,88,62,34,30.03,29.95,27,6,27,0.00
2013-3-5,29,24,15,24,20,12,90,86,80,30.27,29.97,15,4,18,0.59
2013-3-6,31,17,4,17,11,0,88,77,53,30.40,30.26,18,2,21,0.00
2013-3-7,32,14,-6,18,5,-12,83,68,50,30.40,30.27,13,3,15,0.00
2013-3-8,37,31,19,28,23,13,82,74,65,30.28,30.04,19,9,19,0.00
2013-3-9,35,34,32,34,32,26,97,91,70,30.04,29.65,23,8,23,0.24
2013-3-10,34,32,28,33,28,22,99,84,75,29.92,29.73,24,10,25,0.00
2013-3-11,31,27,23,22,20,17,82,77,60,29.83,29.68,19,6,20,0.00
2013-3-12,31,23,17,19,13,8,84,67,39,30.13,29.76,26,7,32,0.00
2013-3-13,36,21,8,13,9,5,85,61,32,30.33,30.13,15,3,16,0.00
2013-3-14,40,28,21,27,22,12,88,76,58,30.22,29.97,15,6,18,0.03
2013-3-15,35,29,20,30,23,16,93,81,56,29.97,29.83,17,4,18,0.24
2013-3-16,28,19,9,16,9,-1,86,67,43,30.21,29.89,17,6,21,0.00
2013-3-17,24,8,-5,7,-2,-11,76,62,44,30.26,30.04,25,6,25,0.00
2013-3-18,27,20,12,24,14,4,91,77,66,29.72,29.54,27,13,29,0.04
2013-3-19,26,14,6,6,0,-8,72,56,40,30.13,29.72,25,10,25,0.00
2013-3-20,24,12,2,5,-2,-9,66,53,39,30.16,30.07,26,8,27,0.00
2013-3-21,31,13,-7,10,1,-13,81,62,38,30.12,30.03,14,1,14,0.00
2013-3-22,39,19,-3,17,7,-9,82,61,35,30.07,29.99,10,1,11,0.00
2013-3-23,42,28,15,23,16,9,78,61,43,30.13,30.02,9,1,10,0.00
2013-3-24,33,29,24,23,19,17,73,67,58,30.04,29.95,20,6,20,0.00
2013-3-25,41,28,14,22,16,10,86,63,39,30.15,30.00,23,4,24,0.00
2013-3-26,41,34,28,23,20,13,70,56,33,30.23,30.14,12,2,14,0.00
2013-3-27,46,35,26,23,19,14,73,55,29,30.28,30.23,12,1,13,0.00
2013-3-28,46,31,15,22,18,11,85,59,32,30.31,30.23,11,3,12,0.00
2013-3-29,45,35,22,34,25,16,86,68,53,30.24,30.01,24,9,24,0.07
2013-3-30,54,41,36,41,36,31,96,82,56,30.01,29.75,31,7,31,0.43
2013-3-31,39,33,24,31,22,11,88,65,37,30.01,29.69,35,9,35,0.00